This is the latest recevied weather packets stored in our database for station/object KD4IZ-13. If no packets are shown the sender has not sent any weather packets the latest 10 day(s).
| Time | Temp. | Humidity | Pressure | Rain* | Wind** | Luminosity | Snow |
|---|---|---|---|---|---|---|---|
| 1777746340 | 13.89° C | 51% | 1014.8 hPa | 0 mm | - | 281 W/m² | - |
| 1777746036 | 13.89° C | 45% | 1014.6 hPa | 0 mm | - | 478 W/m² | - |
| 1777745734 | 13.33° C | 45% | 1014.8 hPa | 0 mm | - | 815 W/m² | - |
| 1777745432 | 13.89° C | 44% | 1014.9 hPa | 0 mm | - | 625 W/m² | - |
| 1777745128 | 13.89° C | 49% | 1014.9 hPa | 0 mm | - | 748 W/m² | - |
| 1777744820 | 13.89° C | 48% | 1014.8 hPa | 0 mm | - | 236 W/m² | - |
| 1777744514 | 13.33° C | 47% | 1014.6 hPa | 0 mm | - | 815 W/m² | - |
| 1777744210 | 13.33° C | 47% | 1015.1 hPa | 0 mm | - | 445 W/m² | - |
| 1777743908 | 13.33° C | 49% | 1014.8 hPa | 0 mm | - | 331 W/m² | - |
| 1777743604 | 13.33° C | 50% | 1014.7 hPa | 0 mm | - | 404 W/m² | - |
| 1777743302 | 12.78° C | 50% | 1014.9 hPa | 0 mm | - | 545 W/m² | - |
| 1777742999 | 12.78° C | 50% | 1014.7 hPa | 0 mm | - | 215 W/m² | - |
| 1777742696 | 14.44° C | 49% | 1014.9 hPa | 0 mm | - | 861 W/m² | - |
| 1777742392 | 13.89° C | 49% | 1014.8 hPa | 0 mm | - | 845 W/m² | - |
| 1777742088 | 13.33° C | 51% | 1014.8 hPa | 0 mm | - | 531 W/m² | - |
| 1777741786 | 12.78° C | 51% | 1015 hPa | 0 mm | - | 922 W/m² | - |
| 1777741482 | 13.33° C | 50% | 1014.9 hPa | 0 mm | - | 915 W/m² | - |
| 1777741178 | 12.78° C | 57% | 1015.1 hPa | 0 mm | - | 885 W/m² | - |
| 1777740876 | 11.67° C | 56% | 1015.1 hPa | 0 mm | - | 781 W/m² | - |
| 1777740573 | 11.67° C | 56% | 1015.2 hPa | 0 mm | - | 444 W/m² | - |
| 1777740269 | 12.22° C | 54% | 1015.1 hPa | 0 mm | - | 336 W/m² | - |
| 1777739965 | 11.67° C | 54% | 1015.1 hPa | 0 mm | - | 263 W/m² | - |
| 1777739662 | 12.22° C | 50% | 1015.2 hPa | 0 mm | - | 371 W/m² | - |
| 1777739360 | 12.22° C | 56% | 1015.2 hPa | 0 mm | - | 547 W/m² | - |
| 1777739056 | 12.22° C | 53% | 1015.5 hPa | 0 mm | - | 773 W/m² | - |
* Rain latest hour (hover to see other rain measurements)
** Current wind speed in m/s (hover to see current wind gust speed)